Location: Barcelona
(41.3830°N, 2.1830°E)
Time: 20:23:39
(UTC+02:00)

ISS - Pass Details

Date: 21 September 2020
Orbit: 419 x 421 km, 51.6° (Epoch: 30 September)

Event Time Altitude Azimuth Distance (km) Brightness Sun altitude
Rises 22:27:20 0° 290° (WNW) 2,365 1.2 -29.2°
Reaches altitude 10° 22:30:05 10° 315° (NW) 1,502 -0.1 -29.6°
Enters shadow 22:30:58 13° 329° (NNW) 1,324 -0.6 -29.8°
